Location: Writing-on-Stone Provincial Park
(49.0825°N, 111.6163°W)
Time: 03:29:27
(UTC-06:00)

Daily predictions for brighter satellites

Satellite Brightness Start Highest point End
(mag) Time Altitude Azimuth Time Altitude Azimuth Time Altitude Azimuth
Cosmos 1455 4.5 00:00:00 10° NW 00:02:41 18° W 00:05:21 10° SW
BREEZE-M DEB (TANK) 3.9 00:04:58 10° WSW 00:06:25 20° SW 00:06:25 20° SW
Coronas F rocket 3.5 00:08:15 15° E 00:08:15 15° E 00:09:44 10° NE
SL-16 R/B 3.1 00:05:38 10° NW 00:10:54 40° WSW 00:14:25 19° SSW
NOSS 2-3 (E) 4.0 00:08:25 13° SSW 00:12:49 69° SE 00:18:42 10° NE
CENTAUR R/B 4.5 00:07:18 10° NW 00:13:55 34° NNE 00:21:06 10° E
Cosmos 2084 Rocket 3.5 00:13:04 33° SSE 00:14:08 42° SE 00:17:45 10° NE
ALOS 2 3.4 00:11:54 22° SE 00:14:14 42° ENE 00:18:23 10° N
Cosmos 2333 Rocket 4.4 00:11:56 10° WNW 00:15:12 16° W 00:18:28 10° SW
Lacrosse 4 Rocket 3.2 00:16:02 10° WNW 00:19:34 23° WSW 00:21:37 17° SSW
ASTEX 1 4.1 00:16:17 10° NNE 00:20:54 41° E 00:23:08 26° SE
Cosmos 2227 4.4 00:17:47 24° S 00:21:01 55° ESE 00:26:34 10° NE
SeaSat 1 2.5 00:20:10 25° SE 00:23:03 81° ENE 00:28:01 10° NNW
Cosmos 2251 Rocket 3.5 00:18:29 10° NNW 00:23:49 77° WSW 00:26:42 28° SSE
Cosmos 2297 Rocket 3.1 00:18:38 10° SW 00:24:05 48° NW 00:29:35 10° NNE
Cosmos 44 Rocket 3.4 00:22:02 13° SW 00:26:43 84° SE 00:32:00 10° NE
Cosmos 921 Rocket 4.0 00:25:39 26° SE 00:26:43 30° E 00:30:25 10° NE
Cosmos 494 Rocket 4.0 00:22:22 10° NNW 00:27:40 83° ENE 00:30:34 28° SSE
Cosmos 1782 3.4 00:24:24 10° N 00:28:15 46° ENE 00:29:51 29° SE
USA 234 4.4 00:23:09 10° ENE 00:29:19 46° N 00:35:29 10° WNW
Cosmos 1943 3.5 00:25:36 10° NNW 00:31:16 62° ENE 00:34:59 22° SE
Uosat 12 SS-18 rocket 4.2 00:30:35 25° SSW 00:33:17 60° SE 00:37:38 10° NE
Cosmos 1674 Rocket 3.8 00:29:46 10° N 00:34:11 61° ENE 00:36:10 31° SSE
NOSS 3-2 (C) 4.1 00:27:08 10° NW 00:34:28 73° NE 00:41:26 14° SE
Terra 3.8 00:32:08 10° SW 00:35:33 19° W 00:38:59 10° NW
Cosmos 1340 Rocket 2.9 00:35:09 37° SSE 00:36:29 61° E 00:40:23 10° NNE
CZ-4B R/B 1.8 00:37:27 36° SE 00:38:29 53° ENE 00:41:45 10° N
NOSS 2-3 (C) 4.2 00:35:09 10° SW 00:40:12 82° NW 00:46:19 10° NE
H-2A R/B 4.1 00:37:08 10° SW 00:40:57 19° W 00:44:48 10° NW
Cosmos 1606 3.7 00:38:19 10° N 00:41:58 38° ENE 00:43:26 27° ESE
Cosmos 1607 4.0 00:37:39 10° NW 00:43:45 64° WSW 00:47:05 28° SSE
Cosmos 389 Rocket 4.3 00:42:06 10° NW 00:45:00 23° W 00:46:22 19° SW
Cosmos 1603 4.1 00:39:52 10° NW 00:45:23 52° WSW 00:48:14 27° S
Cosmos 1408 4.4 00:45:34 18° ESE 00:46:29 20° E 00:49:14 10° NE
Cosmos 1975 Rocket 4.4 00:42:55 10° N 00:46:48 30° ENE 00:49:00 19° ESE
Cosmos 1867 3.7 00:45:31 10° NW 00:51:03 74° NE 00:54:42 22° SE
NOSS 3-2 (A) 3.9 00:48:05 10° NW 00:55:28 82° SW 01:01:07 21° SSE
Nadezhda 3 Rocket 4.0 00:51:23 10° N 00:57:39 86° E 01:01:12 28° S
Cosmos 1908 Rocket 4.1 00:56:37 31° SE 00:58:05 44° E 01:02:14 10° NNE
Landsat 5 3.6 00:56:57 34° SSE 00:58:55 85° ENE 01:03:30 10° NNW
Meteor 1-27 Rocket 3.9 00:53:13 10° N 00:59:05 71° ENE 01:02:13 28° SSE
Cosmos 2074 Rocket 4.3 00:55:09 20° SSW 00:59:31 62° WNW 01:05:49 10° N
NOSS 3-4 (A) 4.1 00:58:06 28° SSE 01:00:50 41° ESE 01:06:55 10° NE
Cosmos 1610 Rocket 4.4 00:57:16 26° SSW 01:00:56 84° W 01:07:07 10° N
NOSS 3-4 (C) 4.1 00:58:13 28° SSE 01:00:57 40° ESE 01:07:00 10° NE
Cosmos 1892 2.8 01:00:06 37° SSW 01:01:28 68° WNW 01:05:16 10° N
H-2A R/B 2.5 00:59:05 10° NNE 01:03:21 78° ESE 01:05:06 36° S
Meteor 2-6 Rocket 4.3 00:59:23 10° NNW 01:05:17 79° W 01:08:26 29° S
Helios 1A Rocket 3.5 01:02:45 10° NNE 01:06:48 46° E 01:08:04 34° SE
RESURS DK-1 3.9 01:07:12 21° ESE 01:07:41 21° ESE 01:10:51 10° ENE
CZ-2C R/B 4.2 01:03:48 17° SE 01:07:42 41° ENE 01:12:49 10° N
GEOS 3 Rocket 3.6 01:11:25 30° SSE 01:13:59 64° SW 01:19:09 10° NW
Cosmos 1689 Rocket 2.6 01:14:14 47° SW 01:14:47 54° W 01:18:03 10° NNW
Cosmos 44 3.5 01:11:51 21° SW 01:15:33 87° NW 01:21:04 10° NE
Abrixas rocket 4.5 01:18:28 15° E 01:18:28 15° E 01:19:16 10° E
Cosmos 1825 2.9 01:16:12 35° SE 01:17:09 42° E 01:20:47 10° NNE
Cosmos 1862 3.6 01:17:49 38° SSE 01:19:01 55° E 01:22:58 10° NNE
Cosmos 1733 Rocket 3.8 01:24:01 26° SW 01:26:13 47° WNW 01:30:33 10° N
ATLAS 2AS CENTAUR R/B 4.3 01:23:04 10° W 01:30:26 42° NNW 01:38:08 10° NE
Cosmos 2154 Rocket 4.2 01:29:22 26° SSW 01:33:08 69° W 01:39:25 10° N
Cosmos 1378 Rocket 3.6 01:29:11 10° NNW 01:33:33 67° W 01:35:05 38° SSW
Cosmos 407 Rocket 4.4 01:30:03 10° NNW 01:34:58 43° ENE 01:39:07 14° SE
Cosmos 2263 Rocket 2.3 01:36:37 31° S 01:39:19 62° ESE 01:44:56 10° NNE
Coronas F rocket 3.2 01:39:20 21° W 01:39:44 21° WNW 01:41:55 10° NNW
Cosmos 2056 Rocket 4.5 01:37:52 25° SE 01:40:00 34° ESE 01:44:41 10° NE
Sich 1 Rocket 4.1 01:40:46 29° SW 01:42:49 53° WNW 01:47:18 10° N
Cosmos 1238 Rocket 3.2 01:40:14 10° NNW 01:43:51 40° W 01:44:31 35° WSW
Meteor 2-13 Rocket 4.4 01:40:52 29° S 01:44:11 82° E 01:50:22 10° NNE
PSLV R/B 4.2 01:43:37 30° SE 01:45:25 59° ENE 01:49:27 10° N
CZ-4C R/B 3.5 01:40:50 10° NW 01:47:17 39° WSW 01:50:44 26° SSW
ATLAS 5 CENTAUR R/B 3.8 01:42:08 10° NW 01:47:27 37° NNE 01:53:10 10° E
Geosat 4.1 01:45:09 10° NE 01:50:10 63° ESE 01:52:25 32° S
ALOS 2 4.1 01:49:17 20° WSW 01:50:45 24° W 01:54:18 10° NW
Iridium 4 Rocket 4.4 01:46:29 10° NNE 01:50:56 38° E 01:54:06 19° SE
CZ-2C R/B 2.5 01:46:38 10° NNE 01:51:54 83° ESE 01:54:24 32° S
SL-27 R/B 3.7 01:48:45 10° N 01:52:13 38° ENE 01:54:18 20° ESE
SeaSat 1 4.2 01:59:57 16° WSW 02:01:08 17° WSW 02:04:22 10° WNW
Cosmos 1184 Rocket 3.0 02:01:22 47° SSE 02:02:04 61° E 02:05:24 10° NNE
Meteor 2-8 Rocket 4.5 01:56:58 10° N 02:03:05 78° ENE 02:06:55 24° SSE
Cosmos 921 Rocket 4.4 02:02:26 17° WSW 02:04:58 31° WNW 02:08:47 10° N
Cosmos 1959 Rocket 4.5 02:02:04 28° S 02:05:36 88° E 02:11:50 10° N
CENTAUR R/B 3.2 01:58:07 10° NW 02:05:47 78° NE 02:14:03 10° SE
Cosmos 1782 Rocket 3.8 02:05:24 33° SW 02:07:13 61° WNW 02:11:37 10° N
Cosmos 2278 Rocket 4.4 02:05:23 10° ESE 02:08:00 13° E 02:10:36 10° ENE
CZ-4B R/B 3.9 02:11:12 12° W 02:11:36 12° W 02:12:54 10° WNW
USA 234 3.6 02:05:22 10° ESE 02:11:52 70° NNE 02:18:23 10° NW
MOS 1-B Rocket 4.5 02:09:27 26° SSW 02:12:02 40° W 02:17:21 10° NNW
COSMOS 2406 3.2 02:07:23 10° NNW 02:13:12 87° WSW 02:17:10 21° SSE
SL-8 Rocket 4.1 02:09:52 26° SSW 02:13:34 71° W 02:19:55 10° N
BREEZE-M TANK 2.4 02:09:21 10° W 02:14:18 42° SSW 02:14:27 42° S
Cosmos 1943 4.5 02:10:21 10° NW 02:14:53 25° WSW 02:16:47 21° SW
Okean 2 Rocket 3.4 02:13:33 31° SW 02:15:32 61° WNW 02:20:00 10° N
Cosmos 1339 Rocket 4.4 02:10:05 10° N 02:16:13 86° E 02:20:01 24° S
Okean 1 4.3 02:15:47 10° N 02:19:37 42° ENE 02:22:02 20° SE
Cosmos 1408 3.7 02:20:05 26° WSW 02:21:28 35° WNW 02:24:58 10° N
Cosmos 724 4.3 02:17:09 10° NW 02:23:15 72° WSW 02:27:57 18° SSE
Cosmos 1624 Rocket 4.0 02:20:53 30° SSW 02:23:34 83° ESE 02:28:52 10° NNE
Cosmos 1975 Rocket 4.2 02:20:48 10° NNW 02:24:39 31° W 02:26:09 24° SW
Cosmos 2218 Rocket 4.2 02:25:53 25° SSW 02:29:41 65° WNW 02:36:02 10° N
Cosmos 909 Rocket 4.3 02:25:39 25° SSW 02:29:42 74° ESE 02:37:26 10° NE
Meteor 1-25 Rocket 4.5 02:31:39 24° S 02:35:09 66° E 02:40:56 10° NNE
Cosmos 1536 Rocket 3.6 02:32:27 10° NNW 02:36:50 67° W 02:38:51 31° S
Cosmos 2366 rocket 4.2 02:35:10 25° SSW 02:38:55 63° WNW 02:45:07 10° N
ERS-2 4.2 02:40:30 10° NE 02:43:17 20° E 02:45:34 12° SE
Cosmos 1452 Rocket 3.9 02:42:27 24° S 02:45:27 54° ESE 02:50:35 10° NNE
RESURS DK-1 3.1 02:43:06 22° WSW 02:45:29 47° NW 02:49:32 10° NNE
Cosmos 1242 Rocket 3.5 02:43:04 10° NNW 02:46:13 31° W 02:46:59 28° WSW
CZ-2C R/B 4.1 02:44:52 23° SW 02:47:36 36° W 02:52:40 10° NNW
NOSS 3-4 (A) 4.1 02:45:31 11° WSW 02:51:37 55° NW 02:58:13 10° NE
NOSS 3-4 (C) 4.1 02:45:38 11° WSW 02:51:42 56° NW 02:58:18 10° NE
Cosmos 1825 4.3 02:51:08 13° WSW 02:53:02 18° WNW 02:55:40 10° NNW
Abrixas rocket 2.1 02:51:24 26° WSW 02:53:09 71° S 02:56:31 10° E
Cosmos 1140 Rocket 3.6 02:48:23 10° NNW 02:53:34 74° ENE 02:58:37 10° SSE
SL-08 R/B 3.7 02:53:06 13° SSE 02:57:26 67° ENE 03:02:16 10° N
Cosmos 1812 3.1 03:04:35 10° NNW 03:08:22 48° W 03:10:07 27° SSW
COSMOS 2487 2.5 03:07:24 10° NNW 03:11:02 88° ENE 03:13:44 17° SSE
NOSS 2-2 (C) 4.3 03:10:10 22° S 03:12:28 42° ESE 03:17:09 10° NE
Resurs 1-4 Rocket 4.2 03:09:19 10° NE 03:13:08 20° E 03:16:55 10° SE
Okean 1 Rocket 3.1 03:11:32 23° S 03:14:17 87° WNW 03:18:48 10° N
IRS-P3 4.2 03:09:53 10° NNE 03:15:16 77° ESE 03:19:10 19° S
Cosmos 407 Rocket 4.4 03:12:20 10° NW 03:16:50 31° W 03:19:18 21° SW
Cosmos 1844 Rocket 2.7 03:14:45 21° SSW 03:18:39 84° ESE 03:24:21 10° NNE
Cosmos 1025 Rocket 3.2 03:14:47 10° N 03:19:06 70° ENE 03:22:58 13° SSE
BREEZE-M DEB (TANK) 3.1 03:08:32 10° W 03:19:15 88° N 03:22:31 10° E
Okean 1-7 Rocket 3.8 03:15:43 10° NNW 03:20:14 58° W 03:23:11 21° SSW
PSLV R/B 3.8 03:16:28 10° N 03:20:36 56° WNW 03:23:10 22° SW
Cosmos 1934 Rocket 4.1 03:16:07 16° S 03:21:07 77° E 03:27:15 10° NNE
Cosmos 2056 Rocket 4.4 03:18:12 16° WSW 03:22:04 39° WNW 03:26:59 10° NNE
Cosmos 1850 Rocket 4.0 03:17:14 10° NNW 03:22:31 85° WSW 03:27:47 10° SSE
Cosmos 1633 3.8 03:20:18 14° SSE 03:23:05 36° E 03:26:28 10° NNE
Cosmos 1536 3.7 03:20:02 15° SSE 03:23:11 46° E 03:27:05 10° NNE
Cosmos 2263 Rocket 3.7 03:18:46 10° WSW 03:23:40 29° NW 03:28:35 10° NNE
Cosmos 1741 Rocket 4.0 03:21:31 10° NNW 03:26:51 81° WSW 03:32:05 10° SSE
SL-27 R/B 4.2 03:24:39 10° NW 03:27:16 19° W 03:28:01 18° WSW
Meteor 1-19 Rocket 4.3 03:21:32 10° NNW 03:27:24 90° NW 03:33:16 10° S
Okean 2 4.4 03:24:20 10° N 03:28:18 44° ENE 03:32:14 10° SSE
IRAS Rocket 4.3 03:23:59 10° NNE 03:29:33 82° ESE 03:33:58 17° SSW
ATLAS 5 CENTAUR R/B 2.3 03:26:43 10° NW 03:32:36 68° SW 03:38:55 10° SSE
Meteor 2-14 Rocket 4.5 03:28:38 15° S 03:33:46 81° E 03:39:53 10° NNE
Cosmos 1455 Rocket 4.5 03:31:14 10° SSE 03:35:14 34° E 03:39:15 10° NNE
Okean O Rocket 4.5 03:34:41 10° ENE 03:35:22 10° E 03:36:04 10° E
NOSS 2-2 (E) 3.8 03:33:57 20° SSW 03:36:58 73° SE 03:42:11 10° NE
Gbstr 26 Del rocket 2.7 03:34:20 19° SW 03:37:08 65° SSE 03:40:52 10° ENE
Meteor 2-15 4.5 03:32:45 10° NNW 03:38:56 76° W 03:45:04 10° S
Cosmos 1844 3.7 03:35:27 18° SSW 03:39:50 90° WSW 03:45:41 10° NNE
Cosmos 614 Rocket 3.9 03:37:54 10° NNW 03:43:03 68° WSW 03:48:08 10° S
Timation 2 Rocket 3.9 03:38:29 10° NNW 03:44:40 74° WSW 03:50:37 10° SSE
GP-B 3.6 03:40:40 10° N 03:44:56 47° W 03:48:07 17° SSW
Meteor 2-21 Rocket 4.5 03:40:04 16° SSW 03:45:07 75° WNW 03:51:17 10° N
Cosmos 2278 Rocket 2.3 03:46:24 15° SSW 03:51:06 78° ESE 03:56:49 10° NNE
UNK 4.3 03:48:47 10° SSE 03:53:20 62° ENE 03:57:57 10° N
Meteor 1-11 Rocket 3.9 03:48:46 14° SSW 03:53:54 74° WNW 03:59:54 10° N
Cosmos 2297 4.5 03:49:40 10° S 03:54:59 46° ESE 04:00:26 10° NE
USA 234 3.4 03:48:47 10° SSE 03:55:05 50° SW 04:01:25 10° WNW
CENTAUR R/B 3.7 03:49:20 10° NW 03:56:08 34° WSW 04:03:16 10° S
IRS-1D 4.2 03:52:45 10° NNE 03:57:42 51° E 04:02:33 10° S
Meteor 1-23 Rocket 4.2 03:54:35 10° NNW 04:00:18 71° W 04:05:54 10° S
Cosmos 1400 Rocket 2.8 03:56:57 13° S 04:00:24 84° E 04:04:24 10° NNE
CBERS 1 LM4 rocket 4.4 03:55:59 10° NNE 04:00:55 79° WNW 04:05:16 13° SSW
Cosmos 1544 Rocket 3.6 03:57:04 11° S 04:01:13 82° E 04:05:37 10° NNE
Cosmos 1605 Rocket 4.0 03:57:15 12° SSW 04:03:05 76° W 04:09:27 10° N
Cosmos 2123 Rocket 4.4 03:58:08 10° NNW 04:04:13 50° W 04:10:16 10° SSW
APEX 4.4 04:02:28 10° S 04:05:11 29° ESE 04:08:27 10° NE
Cosmos 2082 Rocket 2.2 04:00:08 10° NNW 04:05:54 86° WSW 04:11:37 10° SSE
Cosmos 1602 4.4 04:03:13 15° SW 04:06:07 42° WNW 04:09:48 10° N
Cosmos 1174 3.6 04:06:19 10° NW 04:10:03 51° WSW 04:13:11 10° SSE
ERBS 3.6 04:07:57 10° NW 04:11:19 45° NNE 04:14:39 10° E
NPP 4.2 04:06:59 10° N 04:12:07 46° WNW 04:17:00 11° SW
USA 161 2.1 04:10:59 13° SSW 04:13:25 40° W 04:16:18 10° NNW
Cosmos 1461 3.3 04:10:23 12° SW 04:14:39 69° NW 04:19:13 10° NE
Cosmos 1486 Rocket 4.4 04:10:49 10° NNW 04:16:10 69° ENE 04:21:29 10° SSE
SL-16 R/B 2.5 04:10:36 10° S 04:16:50 76° WSW 04:23:05 10° NNW
ERS-2 3.0 04:13:46 10° N 04:17:13 37° WNW 04:20:25 12° SW
Cosmos 1892 Rocket 4.1 04:17:56 10° NNW 04:22:00 40° W 04:26:02 10° SSW
ARIANE 5 R/B 2.5 04:17:40 10° NNE 04:22:42 90° SW 04:27:43 10° SSW
CZ-2D R/B 2.5 04:17:55 10° NNE 04:23:23 70° ESE 04:28:51 10° S
Meteor 2-4 Rocket 4.1 04:19:48 10° NNW 04:24:53 42° W 04:29:52 10° SSW
Cosmos 1110 Rocket 4.3 04:21:02 10° S 04:26:16 67° ESE 04:31:32 10° NNE
Cosmos 1346 Rocket 3.4 04:24:54 10° N 04:28:57 60° ENE 04:32:55 10° SSE
Abrixas rocket 2.2 04:26:50 10° W 04:30:12 73° S 04:33:33 10° ESE
BREEZE-M DEB (TANK) 4.4 04:25:21 10° WNW 04:30:18 71° SSW 04:52:46 10° ESE
Cosmos 1356 4.2 04:27:25 10° SW 04:30:43 41° WNW 04:34:07 10° N
Cosmos 1315 Rocket 2.8 04:28:04 10° SSW 04:32:07 73° WNW 04:36:08 10° N
USA 229 DEB 4.0 04:28:35 10° NW 04:35:43 81° NE 04:42:56 10° SE
USA 229 4.0 04:28:40 10° NW 04:35:49 81° NE 04:43:00 10° SE
Cosmos 2173 Rocket 4.1 04:31:04 10° S 04:37:12 83° E 04:43:26 10° N
USA 129 2.8 04:35:18 10° SSE 04:37:13 42° ENE 04:39:03 10° N
SME Rocket 3.4 04:35:42 10° S 04:39:25 49° W 04:44:05 10° NNW
Cosmos 1833 Rocket 2.8 04:35:43 10° NW 04:41:15 60° WSW 04:46:45 10° S
CZ-2C R/B 4.1 04:38:56 10° SSE 04:43:42 78° ENE 04:48:31 10° NNW
UNKNOWN OBJECT B 3.0 04:40:37 10° NNE 04:44:45 82° ESE 04:48:50 10° SSW
Cosmos 1331 Rocket 4.1 04:39:54 10° SSW 04:45:07 83° ESE 04:50:20 10° NNE
Cosmos 1459 Rocket 4.1 04:41:54 10° S 04:48:15 82° W 04:54:33 10° N
